GFSNIL_850_temp_159.txt.gz
Temp
4 3 3 4 5 5 5 5 5 5 5 4 4 4 3 2 2 1 -1 -1 -2 -1
3 5 6 6 5 5 5 5 4 4 4 4 3 3 2 1 -1 -2 -2 -3 -3 -3
5 5 5 5 5 5 4 4 3 3 3 3 2 2 1 -3 -1 -3 -4 -4 -4 -4
5 5 4 5 5 4 3 2 2 2 1 2 0 -0 -1 -2 -3 -4 -4 -5 -5 -5
3 3 4 4 3 2 1 0 1 1 1 -2 -1 -1 -2 -3 -5 -5 -5 -6 -6 -6
2 2 2 2 2 1 -0 0 0 -1 -4 -3 -3 -4 -4 -4 -5 -5 -5 -7 -7 -6
1 0 0 1 -2 -2 -2 -2 -4 -4 -3 -3 -3 -5 -5 -6 -6 -7 -7 -7 -8 -5
0 -1 -0 -1 -4 -3 -2 -5 -5 -5 -5 -5 -5 -4 -6 -7 -7 -8 -8 -8 -9 -7
-0 -0 -2 -3 -3 -3 -3 -4 -5 -6 -6 -6 -3 -3 -5 -6 -8 -8 -7 -9 -10 -11
-1 -2 -1 -2 -5 -5 -4 -3 -3 -4 -4 -4 -4 -4 -5 -6 -6 -6 -6 -7 -9 -11
-1 -2 -2 -4 -4 -3 -3 -3 -4 -4 -5 -4 -4 -5 -5 -6 -6 -7 -7 -8 -9 -11
-2 -2 -2 -3 -4 -3 -4 -4 -4 -5 -6 -6 -5 -6 -6 -6 -8 -8 -8 -9 -8 -9
-2 -3 -3 -4 -4 -4 -5 -5 -6 -6 -7 -7 -7 -7 -7 -7 -10 -11 -12 -12 -11 -9
-3 -3 -3 -5 -6 -5 -6 -7 -8 -8 -8 -10 -8 -7 -7 -8 -10 -12 -13 -13 -13 -10

GFSNIL_850_temp_162.txt.gz
Temp
6 5 5 4 4 5 6 6 5 6 5 5 5 4 4 3 2 2 1 1 2 -0
5 4 4 5 5 6 5 5 5 5 5 4 4 3 3 2 2 1 0 -2 -0 -1
4 4 5 5 5 5 5 5 4 4 4 3 3 3 1 1 1 -0 -1 -3 -3 -2
2 3 4 5 4 5 4 3 4 4 3 2 3 2 1 -0 -1 -3 -3 -3 -3 -2
3 3 4 3 3 2 1 1 3 2 2 2 1 -0 -1 -1 -2 -2 -2 -3 -3 -2
3 3 3 2 1 -0 0 1 1 1 1 0 -2 -2 -2 -2 -2 -2 -3 -5 -4 -3
3 2 2 0 0 -2 -1 -1 -0 -0 -1 -2 -3 -2 -3 -3 -5 -6 -5 -6 -4 -4
1 1 0 0 -2 -3 -2 -3 -2 -2 -4 -4 -2 -2 -3 -6 -6 -7 -7 -8 -7 -6
0 -0 1 -1 -1 -3 -4 -4 -5 -5 -5 -2 -0 -2 -4 -6 -6 -5 -5 -6 -9 -8
-1 -1 -1 -1 -3 -5 -5 -5 -5 -4 -4 -2 -2 -3 -4 -5 -4 -4 -5 -5 -7 -8
-1 -1 -2 -2 -3 -5 -5 -5 -4 -4 -4 -3 -3 -3 -4 -5 -6 -5 -5 -6 -7 -7
-0 -1 -2 -3 -3 -4 -5 -5 -4 -5 -4 -4 -4 -4 -5 -6 -6 -6 -6 -8 -8 -8
-1 -2 -3 -3 -4 -6 -6 -5 -5 -5 -5 -4 -5 -6 -6 -7 -9 -8 -9 -9 -8 -9
-2 -3 -3 -4 -5 -7 -6 -6 -6 -5 -7 -6 -6 -7 -7 -8 -9 -10 -12 -12 -8 -9

GFSNIL_850_temp_165.txt.gz
Temp
7 7 7 7 7 7 7 7 7 7 6 6 5 5 5 5 4 4 3 3 1 2
6 6 6 6 6 6 6 6 6 6 5 5 4 3 4 3 3 1 1 2 1 1
6 5 5 5 5 5 4 4 5 5 4 4 3 2 3 2 1 1 0 1 1 1
5 5 4 4 4 4 4 4 4 2 2 2 2 2 1 0 -0 1 1 1 0 -1
4 4 3 4 3 2 2 2 2 1 1 1 1 1 0 0 0 1 1 -1 -1 -1
4 4 3 3 3 3 1 -1 -2 -1 -0 -1 -0 -1 -1 -0 0 -1 -3 -2 -2 -1
3 3 3 3 2 0 -1 -2 -3 -2 -1 -2 -1 -1 -1 -1 -1 -4 -4 -2 -1 -1
4 3 2 1 -0 -1 -2 -5 -3 -3 -3 -2 -1 -1 -2 -3 -4 -4 -3 -1 -1 -2
4 1 -0 -1 -1 -1 -3 -3 -4 -4 -3 -2 -3 -3 -4 -4 -4 -4 -3 -2 -2 -3
2 1 -0 -1 -1 -2 -3 -5 -5 -5 -4 -3 -3 -4 -5 -3 -4 -4 -4 -4 -3 -5
1 0 -1 -1 -2 -3 -4 -5 -5 -4 -5 -4 -4 -4 -5 -4 -5 -4 -4 -4 -5 -6
1 -0 -1 -2 -3 -4 -4 -5 -5 -6 -4 -4 -4 -4 -4 -5 -5 -5 -5 -6 -6 -6
1 -0 -1 -2 -3 -4 -4 -5 -6 -7 -5 -5 -5 -5 -5 -5 -5 -5 -6 -6 -6 -6
0 -1 -2 -3 -4 -4 -5 -6 -6 -7 -6 -5 -6 -6 -6 -7 -7 -7 -6 -6 -7 -7

GFSNIL_850_temp_171.txt.gz
Temp
7 8 8 8 8 8 8 7 7 7 6 6 6 5 5 5 6 6 5 5 5 4
8 8 8 8 8 7 7 6 6 6 6 5 5 4 4 4 4 4 4 4 4 3
8 8 7 7 7 7 6 6 5 5 5 4 4 3 3 3 3 3 4 2 2 2
7 7 7 6 6 6 5 5 5 4 3 3 3 3 2 2 2 2 2 1 1 1
7 7 6 5 5 4 4 4 3 3 2 3 2 1 2 -1 1 1 0 0 0 0
6 6 5 5 4 4 3 2 1 0 2 1 0 -0 1 -1 -1 -1 -1 -1 -1 -1
6 5 5 4 3 3 2 1 1 1 0 -0 0 -2 -1 -3 -2 -2 -2 -1 -1 -1
6 5 4 3 3 2 2 1 0 -0 0 -1 -2 -4 -4 -5 -3 -3 -2 -3 -2 -2
5 4 3 3 3 2 1 -0 -0 -1 -1 -2 -3 -5 -5 -5 -4 -4 -3 -3 -3 -2
4 4 3 3 2 1 0 0 -1 -2 -3 -3 -4 -4 -6 -7 -6 -5 -4 -4 -4 -4
4 3 3 2 1 1 0 -1 -1 -2 -3 -4 -5 -5 -5 -7 -7 -6 -5 -5 -4 -4
4 4 3 2 1 1 -0 -1 -2 -3 -4 -4 -5 -6 -6 -6 -7 -7 -5 -5 -5 -5
4 3 2 2 2 1 -1 -2 -3 -4 -4 -5 -5 -6 -6 -6 -6 -7 -6 -6 -6 -6
3 3 2 2 1 0 -1 -2 -3 -4 -5 -6 -6 -6 -7 -7 -8 -7 -7 -7 -7 -7

GFSNIL_850_temp_174.txt.gz
Temp
8 7 7 7 7 7 7 6 6 6 6 6 6 6 6 6 6 6 6 6 6 6
7 7 7 8 7 7 7 6 5 5 5 5 5 5 5 5 5 5 5 5 5 5
7 7 7 6 6 6 6 5 4 5 4 4 4 4 4 4 4 3 4 3 4 4
8 7 6 5 5 5 5 4 3 3 2 3 2 3 3 3 2 2 2 2 2 3
7 6 6 5 5 5 4 3 3 2 1 1 0 1 1 0 0 -1 0 0 1 1
6 6 6 6 5 5 4 3 2 1 1 0 -1 -0 0 0 0 -3 -3 -1 -0 -1
7 6 6 5 5 4 4 3 2 1 0 -0 -0 0 -0 -0 -3 -3 -4 -1 -2 -1
6 5 5 4 3 3 3 2 1 0 0 -0 -1 -1 -1 -3 -4 -6 -4 -3 -2 -2
6 5 4 4 3 3 2 2 1 1 -0 -1 -1 -2 -4 -5 -5 -6 -4 -4 -3 -3
6 5 4 4 4 3 3 1 1 -0 -1 -1 -2 -3 -4 -5 -6 -7 -7 -5 -5 -5
6 5 4 3 3 2 2 1 0 -0 -1 -2 -3 -4 -5 -5 -6 -6 -7 -6 -5 -5
5 4 4 3 3 3 1 0 -0 -1 -2 -3 -4 -5 -5 -6 -6 -7 -7 -7 -6 -6
5 5 4 3 3 2 2 -0 -1 -2 -3 -4 -4 -5 -6 -6 -6 -7 -7 -7 -6 -6
4 4 4 3 2 2 1 1 -1 -2 -3 -4 -5 -5 -6 -6 -7 -7 -7 -7 -7 -6